Regional Weather Roundup
Issued by NWS

Home | Current Version | Previous Version | Graphics & Text | Print | Product List | Glossary On
Versions: 1 2 3 4 5 6 7 8 9 10 11 12 13 14 15 16 17 18 19 20 21 22 23 24 25 26 27 28 29 30 31 32 33 34 35 36 37 38 39 40 41 42 43 44 45 46 47 48 49 50
000
ASUS43 KLOT 070500
RWRIL

ILLINOIS REGIONAL WEATHER ROUNDUP
NATIONAL WEATHER SERVICE CHICAGO/ROMEOVILLE IL
1200 AM CDT TUE JUL 07 2015

NOTE: "FAIR" INDICATES FEW OR NO CLOUDS BELOW 12,000 FEET WITH NO
SIGNIFICANT WEATHER AND/OR OBSTRUCTIONS TO VISIBILITY.

* THESE STATIONS ARE NOT UNDER NWS QUALITY CONTROL. THEY ALSO MAY NOT
  REPORT WEATHER SUCH AS PRECIPITATION OR FOG.

ILZ001-002-007-009-015-016-024-070600-
NORTHWEST ILLINOIS

CITY           SKY/WX    TMP DP  RH WIND       PRES   REMARKS
MOLINE         LGT RAIN  72  69  90 NW10      29.85F
STERLING*      CLOUDY    72  70  94 W21G28    29.85S
$$

ILZ003-004-008-010-011-017-018-070600-
NORTH CENTRAL ILLINOIS

CITY           SKY/WX    TMP DP  RH WIND       PRES   REMARKS
ROCKFORD       LGT RAIN  72  68  87 W15G23    29.86F FOG
$$

ILZ005-006-012>014-019>023-070600-
NORTHEAST ILLINOIS

CITY           SKY/WX    TMP DP  RH WIND       PRES   REMARKS
CHICAGO-OHARE  RAIN      71  69  93 W12       29.85F FOG
CHICAGO-MIDWAY LGT RAIN  73  69  87 W8        29.86R
AURORA         CLOUDY    72  68  87 SE5       29.86F
WAUKEGAN       LGT RAIN  71  69  93 SW9       29.84F
DUPAGE AIRPORT LGT RAIN  70  68  93 CALM      29.85F
WHEELING       RAIN      71  68  90 W8        29.86F FOG
NORTHERLY ISL    N/A     72  68  87 W7          N/A
$$

LMZ740>746-070600-
SOUTHERN LAKE MICHIGAN

STATION/POSITION SKY/WX   TEMP    WIND        PRES    VSBY  WAVE
                          AIR SEA DIR/SP/G                  HT/PER
                          (F)     (DEG/KT/KT) (MB)    (MI)  (FT/S)
HARRISON CRIB              73     200/ 18/ 24   N/A
BURNHAM HARBOR             72     240/  6/ 10   N/A
CALUMET HARBOR             73     190/  5/  7   N/A
BURNS HARBOR               74     240/ 10/ 15 1011.9F
MICHIGAN CITY              76     160/ 12/ 15   N/A
MICHIGAN CITY 6N           75 68  220/ 12/ 16   N/A           1
ST. JOSEPH                 74 67  210/ 16/ 19   N/A           2/ 3
$$

ILZ025>027-034>036-040-047-049-050-058-095>099-070600-
WEST-CENTRAL ILLINOIS

CITY           SKY/WX    TMP DP  RH WIND       PRES   REMARKS
QUINCY         CLOUDY    73  71  93 SE6       29.87F
$$

ILZ028>032-037-038-041>044-048-051>054-059>061-070600-
CENTRAL ILLINOIS

CITY           SKY/WX    TMP DP  RH WIND       PRES   REMARKS
DECATUR        CLOUDY    78  73  84 S13       29.89F HX  81
PEORIA         LGT RAIN  74  70  87 W5        29.87S
SPRINGFIELD    CLOUDY    80  73  79 S13       29.87F HX  84
TAYLORVILLE    NOT AVBL
$$

ILZ033-039-045-046-055>057-062-063-070600-
EAST-CENTRAL ILLINOIS

CITY           SKY/WX    TMP DP  RH WIND       PRES   REMARKS
CHAMPAIGN      CLOUDY    75  72  90 S8        29.90F
MATTOON        CLOUDY    76  73  91 S8        29.92S
$$

ILZ079-100>102-070600-
SOUTHWEST ILLINOIS

CITY           SKY/WX    TMP DP  RH WIND       PRES   REMARKS
BELLEVILLE     CLOUDY    79  78  96 S13       29.90F HX  83
CAHOKIA*       CLOUDY    80  74  81 S6        29.90F HX  85
$$

ILZ064>066-069>071-074>076-080>082-084>086-088>090-092>094-070600-
SOUTH-CENTRAL ILLINOIS

CITY           SKY/WX    TMP DP  RH WIND       PRES   REMARKS
CARBONDALE     MOCLDY    78  73  84 S13       29.96F HX  81
MT. VERNON     CLOUDY    77  70  78 S9        29.96S
$$

ILZ067-068-072-073-078-083-087-091-070600-
SOUTHEAST ILLINOIS

CITY           SKY/WX    TMP DP  RH WIND       PRES   REMARKS
LAWRENCEVILLE  PTCLDY    75  73  93 S7        29.96F
$$

ABBREVIATIONS USED IN REMARKS
   TC - TEMPERATURE IN CELSIUS
  WCI - WIND CHILL INDEX
   HX - HEAT INDEX
  VSB - VISIBILITY
$$




USA.gov is the U.S. government's official web portal to all federal, state and local government web resources and services.